User: anonymous   Login
Location: Black Swamp Observatory
(41.3920°N, 84.1250°W)
Time: 03:04:20
(UTC-05:00)
Language:

Transit 4A - Orbit

View from above orbital plane
View from above orbital plane
View from above satellite
View from above satellite

Ground track
Ground track

The orbit data is extracted from the following two-line orbital elements,

1   116U 61015A   22027.86946303 -.00000023  00000-0  41632-4 0  9999
2   116  66.8079 207.2851 0080584 312.6018  46.8283 13.91809318 74327
Epoch (UTC): 27 January 2022 20:52:01
Eccentricity: 0.0080584
inclination: 66.8079°
perigee height: 863 km
apogee height: 981 km
right ascension of ascending node: 207.2851°
argument of perigee: 312.6018°
revolutions per day: 13.91809318
mean anomaly at epoch: 46.8283°
orbit number at epoch: 7432

The dashed part of the orbit path shows where the satellite is in the earth's shadow,  

DLR